SCP
-0 0 -0 0 0 0 0 0 0 0 0 0 0 0 0 0 0 0 0 0 1 1 1 1 1 2 2 2 4 3 2 1 2 2 1 2 1 1 1 1 1 0 1 1
0 0 0 0 0 0 0 0 0 0 0 0 0 0 0 0 0 0 0 0 0 0 1 2 2 2 2 2 1 1 1 2 3 3 3 3 2 2 1 1 1 1 0 1
0 0 0 0 0 0 0 0 0 0 0 0 0 0 0 0 0 0 0 1 1 2 1 1 1 1 1 1 1 1 1 2 2 2 2 1 2 3 2 1 1 1 1 1
0 0 0 0 0 0 0 0 0 0 0 0 0 0 0 0 0 0 0 1 2 2 1 1 1 1 2 1 1 1 1 1 1 1 1 1 1 1 2 2 1 1 1 1
0 0 0 0 0 0 0 0 0 0 0 0 0 0 0 0 0 1 1 1 1 1 1 1 1 1 1 1 1 1 1 1 1 2 1 1 1 1 3 1 1 1 1 0
0 0 0 0 0 0 0 0 0 0 0 0 0 0 1 1 1 1 1 1 1 1 1 1 1 1 1 1 1 1 1 1 0 1 1 1 1 1 2 1 0 0 0 0
0 0 0 0 0 0 0 0 0 0 0 0 0 1 1 1 1 1 1 1 0 0 0 0 0 0 0 0 0 0 0 0 0 0 0 0 0 0 0 0 0 0 0 0
0 0 0 0 0 0 0 0 0 0 0 0 1 1 1 1 1 1 1 0 0 0 0 0 0 0 0 0 0 0 0 0 0 0 0 0 0 0 0 0 0 0 0 0
0 0 1 0 0 0 0 0 0 0 0 0 0 0 0 0 0 0 1 1 1 1 0 0 0 0 0 0 0 0 0 0 0 0 0 0 0 0 0 0 0 0 0 0
-0 0 0 0 0 0 0 0 0 0 0 0 0 0 0 0 0 0 0 0 0 0 0 0 0 0 0 -0 -0 -0 0 0 0 0 0 0 0 0 0 0 0 0 0 0
0 0 0 0 0 0 0 0 0 0 0 0 0 0 0 0 0 1 1 0 0 0 0 0 0 0 0 -0 -0 -0 -0 -0 0 -0 0 0 0 0 0 0 0 0 0 0
-0 0 0 0 0 0 0 0 0 0 0 -0 -0 0 0 -0 0 0 0 0 0 0 0 0 0 -0 -0 -0 -0 -0 0 -0 -0 0 -0 -0 0 0 0 0 0 -0 0 0
0 0 0 0 0 0 0 0 0 -0 -0 -0 -0 -0 -0 -0 -0 -0 -0 0 0 0 -0 -0 0 0 0 0 0 -0 -0 -0 0 -0 -0 0 0 0 0 0 0 0 0 0
0 0 -0 0 0 0 0 0 0 -0 -0 -0 -0 -0 -0 -0 0 0 -0 0 -0 -0 -0 0 0 0 -0 -0 -0 -0 -0 -0 0 0 0 0 0 -0 -0 -0 0 0 0 0
0 0 -0 0 0 0 0 -0 -0 -0 0 -0 -0 -0 -0 -0 -0 0 0 0 0 0 0 0 0 0 -0 -0 0 -0 0 0 0 0 0 -0 -0 -0 -0 -0 -0 -0 -0 -0
-0 -0 -0 0 0 0 -0 -0 -0 -0 0 -0 -0 -0 -0 -0 -0 -0 -0 -0 -0 -0 0 0 0 -0 -0 0 0 0 0 0 -0 0 0 0 -0 -0 -0 -0 -0 -0 0 -0
0 -0 0 0 -0 0 -0 -0 0 0 0 -0 -0 -0 -0 -0 -0 -0 -0 -0 -0 -0 -0 0 -0 -0 -0 0 0 0 -0 -0 -0 0 0 0 0 -0 -0 -0 0 -0 -0 -0
0 0 0 -0 0 -0 -0 -0 0 0 0 0 0 0 0 -0 -0 -0 0 0 -0 -0 -0 -0 0 -0 0 -0 0 -0 0 0 0 0 0 0 0 -0 -0 -0 -0 -0 -0 0
0 0 0 0 0 0 0 -0 0 0 0 0 0 0 0 0 -0 -0 -0 0 -0 -0 -0 -0 -0 -0 0 0 -0 0 0 0 0 0 0 0 0 0 -0 0 0 0 0 0
0 0 0 0 0 0 0 0 -0 -0 -0 0 0 0 0 0 0 0 -0 0 0 0 0 0 -0 -0 0 -0 -0 0 -0 -0 -0 -0 -0 -0 0 -0 -0 0 0 0 0 0
0 0 0 0 0 0 0 -0 0 0 0 -0 0 0 0 0 0 0 0 0 0 0 0 0 0 0 -0 0 -0 -0 -0 -0 -0 -0 -0 0 0 -0 0 0 -0 0 0 0
0 0 0 0 0 -0 -0 0 0 1 1 0 0 0 0 1 1 1 0 0 0 0 0 0 0 0 0 0 0 0 -0 -0 0 0 0 0 -0 0 -0 0 0 0 -0 0
0 0 0 0 0 0 0 0 0 0 1 1 1 1 1 0 1 0 0 0 -0 0 0 0 0 0 0 0 0 0 0 0 0 0 0 0 0 -0 0 -0 0 0 0 0
2 1 1 0 0 0 1 1 0 1 1 1 1 1 1 0 0 0 1 0 0 0 0 0 0 0 0 0 0 0 0 0 0 0 0 0 0 0 0 0 0 0 0 0
1 1 1 1 0 0 1 1 1 1 1 1 1 1 1 0 -0 0 0 1 0 0 0 0 0 0 0 0 0 0 0 0 0 0 0 0 0 0 0 0 0 0 0 0
1 0 1 1 0 0 0 0 0 0 0 0 0 1 0 0 0 0 0 0 0 -0 -0 0 0 0 0 0 0 0 0 0 0 0 0 0 0 0 0 0 0 0 0 0
0 0 0 0 0 0 0 0 0 0 0 0 0 0 0 0 0 0 0 0 0 0 0 0 0 0 0 0 0 0 0 0 0 0 0 0 0 0 0 0 0 0 0 0
Wind_Speed_500mb
36 25 24 16 18 22 15 14 17 29 22 14 3 22 18 11 5 8 10 18 15 10 8 17 19 26 38 52 60 64 67 64 69 68 66 53 47 47 42 42 39 35 35 35
32 32 30 17 18 23 25 26 23 22 24 21 10 11 5 6 12 21 22 19 20 19 14 12 19 26 33 44 52 58 65 79 64 62 66 59 61 56 49 44 42 38 40 39
26 29 24 24 17 23 26 27 24 24 16 15 5 3 9 10 21 25 30 21 13 4 7 11 20 19 28 37 42 49 58 77 71 61 61 66 67 62 57 51 44 44 39 38
21 3 15 28 13 11 15 12 15 17 19 22 23 16 21 7 16 14 10 1 10 8 5 15 17 23 26 29 34 41 49 70 77 69 68 68 64 61 51 51 52 44 40 36
22 24 15 44 16 2 20 9 6 17 23 28 7 17 25 19 8 15 16 12 10 7 2 10 12 14 24 26 27 30 38 47 51 68 70 67 63 57 57 50 45 47 44 34
8 18 24 24 30 17 9 12 13 19 13 9 10 15 9 23 17 9 11 18 14 8 7 15 13 18 19 15 9 10 17 30 38 44 50 53 58 63 56 57 54 44 34 39
23 36 18 16 25 17 12 3 10 7 10 11 11 14 25 20 18 14 17 15 17 15 13 16 8 5 7 11 13 15 19 22 25 30 42 50 53 56 55 50 41 38 37 36
22 25 25 22 9 9 13 5 7 3 7 9 9 21 16 12 15 16 22 27 22 21 24 31 33 26 25 14 7 2 16 24 32 32 35 32 18 24 30 30 28 23 22 22
26 14 19 20 13 9 9 5 3 2 8 12 12 22 13 11 14 25 24 26 23 25 25 21 23 25 17 22 21 25 26 6 24 21 20 32 37 27 29 28 26 25 22 16
21 12 12 24 25 15 7 1 1 4 1 8 21 18 12 10 14 23 28 30 20 18 22 22 8 8 11 17 19 23 35 48 50 39 46 42 28 29 34 30 26 26 27 21
27 28 26 21 28 20 17 5 10 10 19 25 24 19 16 14 11 17 27 28 20 23 22 18 7 6 7 14 16 16 21 26 34 43 46 40 35 38 32 33 32 27 25 21
22 39 26 32 28 26 17 14 16 17 18 25 32 25 19 12 7 6 20 22 20 22 20 17 11 12 6 6 11 17 25 25 25 28 36 36 32 27 28 25 23 19 19 19
41 46 50 36 32 24 21 22 21 26 26 29 30 34 31 36 30 31 20 27 20 25 6 5 14 12 10 12 15 14 10 16 22 23 22 26 28 25 29 30 25 19 20 21
23 25 73 35 30 25 26 27 25 28 26 29 29 31 25 22 23 14 16 19 13 13 10 10 14 10 7 12 21 25 26 25 22 20 22 18 17 24 22 24 29 29 26 25
14 76 85 27 31 29 30 30 31 29 27 28 28 29 27 20 17 18 16 18 18 17 10 13 13 13 16 20 19 21 27 19 21 17 23 18 15 21 19 20 25 29 30 31
70 75 58 43 37 33 34 32 32 30 27 29 23 23 22 21 20 19 20 15 17 19 15 17 20 15 18 19 20 17 14 19 12 25 27 27 21 19 28 21 16 26 27 31
25 82 36 40 41 37 35 33 31 30 26 31 27 23 20 20 21 20 21 24 13 15 24 19 16 17 22 19 21 21 17 23 20 16 20 18 21 23 20 19 21 19 17 23
31 32 35 59 41 40 38 35 32 32 29 24 31 28 26 23 23 23 24 23 23 18 22 27 28 25 23 25 26 23 17 20 22 21 22 22 23 23 21 23 24 28 21 22
13 16 25 32 30 40 37 37 34 30 29 26 29 29 27 28 26 26 24 28 27 28 26 19 27 32 26 35 22 26 21 20 22 22 20 22 24 23 24 26 26 31 20 28
9 13 15 36 36 41 37 38 36 37 31 26 25 26 29 30 29 28 30 33 30 27 28 30 33 29 29 26 32 27 26 25 24 26 24 24 26 26 26 26 28 30 29 20
10 22 11 1 22 7 39 31 36 38 32 29 31 33 33 32 34 34 33 32 33 32 31 34 39 30 39 33 44 34 25 29 29 29 30 28 29 28 29 28 25 26 27 31
13 8 11 20 22 40 49 33 24 28 29 28 30 34 37 38 37 38 39 36 31 36 40 40 41 40 35 37 33 39 28 28 30 31 32 31 31 31 31 34 31 30 27 28
21 17 12 14 11 9 13 18 19 23 33 36 38 36 39 39 41 44 48 43 45 45 42 45 42 42 48 44 37 39 38 33 36 36 38 40 33 36 37 31 36 38 31 30
11 9 27 20 18 15 14 22 22 24 30 30 34 37 38 37 40 47 53 51 42 49 55 47 51 48 36 59 49 42 43 42 34 39 38 41 44 39 38 37 37 30 28 30
19 15 14 19 26 32 26 18 22 22 31 35 36 37 31 35 43 45 44 55 54 49 57 54 53 52 48 42 56 53 51 50 46 39 40 42 38 39 38 38 34 27 36 31
23 17 16 16 11 14 32 28 20 24 27 28 16 13 38 38 44 44 43 43 34 55 63 64 62 60 56 50 49 57 57 54 52 51 48 38 43 41 37 38 36 42 38 35
20 18 14 12 11 15 15 9 9 15 17 14 14 33 33 34 32 36 38 41 46 38 64 52 58 65 67 64 55 54 55 55 58 53 53 58 48 44 47 41 46 40 32 34
Wind_Direction_500mb
286 205 202 244 293 295 278 291 303 304 323 203 26 109 79 41 331 288 251 252 246 258 256 222 234 228 220 224 220 219 212 212 217 221 223 218 211 219 221 227 236 234 226 232
279 292 297 231 232 254 269 280 271 261 288 301 295 131 151 240 259 278 264 247 243 236 223 261 240 218 232 231 235 233 226 220 219 224 216 216 214 217 224 223 225 228 227 226
252 271 306 290 243 244 258 254 264 277 302 343 326 126 298 281 296 260 254 233 226 161 242 266 260 259 240 239 243 236 228 222 219 222 223 225 216 215 220 226 232 233 230 230
254 275 286 280 270 201 247 278 299 311 310 300 295 318 305 283 263 294 291 63 142 120 233 253 252 251 245 240 242 244 237 232 231 227 226 229 220 219 222 228 231 231 231 229
242 247 271 242 315 133 259 211 347 308 293 294 343 321 272 262 221 103 84 93 108 120 279 275 251 259 244 243 244 247 243 238 237 229 226 223 226 220 217 231 235 230 226 232
272 249 251 249 179 246 65 258 71 30 3 345 344 286 79 109 130 140 130 124 108 108 178 246 247 251 228 222 204 221 229 229 229 219 217 221 225 224 228 224 224 226 231 234
204 236 245 274 117 120 226 88 86 39 343 311 304 61 108 117 114 132 142 148 126 113 87 65 125 256 209 219 245 240 220 215 220 222 225 212 205 194 198 207 219 225 229 234
246 253 234 84 54 216 95 164 280 122 300 300 130 127 120 134 151 155 157 152 144 122 108 99 90 83 79 81 82 234 247 239 233 231 230 241 238 175 181 188 198 206 219 229
304 237 115 117 130 79 57 330 274 354 291 266 241 130 145 170 185 167 170 157 164 139 130 117 94 70 90 99 78 77 65 98 211 211 228 218 217 203 189 192 192 189 192 202
331 157 161 202 135 120 137 29 72 113 127 128 119 122 133 159 181 179 173 162 132 150 152 158 128 56 65 147 112 79 77 91 96 97 92 99 107 129 139 137 141 149 144 136
279 261 133 146 143 157 135 148 129 108 120 121 117 116 129 130 147 183 177 161 161 138 148 148 126 356 45 112 168 171 99 112 111 104 96 94 97 105 107 105 108 112 113 119
238 333 162 162 154 147 145 157 135 131 118 127 123 125 125 123 133 208 132 138 137 134 116 106 130 128 128 119 109 126 159 136 119 123 125 122 117 124 129 131 127 120 112 117
260 313 315 151 149 152 157 151 146 142 143 136 130 137 133 123 108 102 129 132 157 148 29 90 167 176 151 135 131 121 123 130 131 134 139 140 145 143 135 127 128 128 128 131
255 254 282 144 146 157 149 142 144 139 148 145 150 157 154 152 134 153 168 174 177 213 165 179 154 176 161 154 145 131 127 114 115 118 117 105 130 130 130 137 138 137 137 140
104 230 243 152 154 152 149 143 154 150 151 141 151 164 173 175 171 175 182 191 179 193 216 198 191 177 181 162 153 152 151 141 141 148 156 141 135 138 137 150 155 150 147 142
224 226 181 160 157 157 156 160 160 159 162 147 153 163 174 181 175 177 180 185 189 191 187 196 193 179 178 157 148 137 141 169 148 162 172 160 163 167 154 161 154 151 144 145
86 266 140 156 168 167 169 169 170 167 173 160 161 168 168 169 173 179 186 197 210 187 199 197 186 180 165 158 164 172 171 173 165 160 150 161 159 168 180 167 163 151 177 155
248 170 158 179 182 170 173 172 179 175 178 179 169 170 178 183 185 189 192 195 195 188 201 205 189 177 177 183 181 161 177 178 175 176 177 173 173 173 176 176 167 165 179 169
280 258 185 174 191 177 175 174 178 175 170 184 178 180 189 195 195 196 195 202 201 203 209 215 198 202 192 181 192 192 187 187 186 185 182 183 175 177 182 179 176 171 169 173
9 201 217 195 179 188 217 176 175 168 172 184 194 195 196 199 200 201 203 205 210 211 213 202 213 216 187 208 204 191 200 196 196 191 189 189 189 194 193 192 187 188 192 185
187 160 159 281 173 186 223 210 180 169 175 189 201 208 207 209 210 209 211 212 217 206 212 213 209 210 192 205 207 207 207 204 204 202 196 198 203 205 203 200 207 203 201 206
198 165 169 167 190 192 203 176 178 180 186 196 208 213 212 215 216 222 221 220 221 214 204 216 216 205 203 206 209 210 220 215 212 211 207 204 214 211 217 210 207 217 218 214
222 201 194 193 192 174 199 184 196 196 202 207 209 212 216 217 218 217 222 238 223 224 213 205 216 211 197 205 211 213 218 227 219 219 216 210 212 226 220 230 227 217 212 219
170 178 192 176 186 205 232 199 209 216 215 218 220 217 215 222 232 236 234 229 234 218 218 209 211 222 214 206 201 215 217 225 236 226 226 222 216 215 223 229 231 228 226 217
100 109 155 197 215 219 232 203 213 222 214 222 224 229 233 240 240 241 250 235 219 221 219 215 216 221 221 219 209 208 215 220 224 233 229 231 228 227 228 226 228 235 227 230
94 100 93 90 142 156 204 182 195 223 230 257 246 217 283 260 259 254 255 268 255 231 227 216 216 219 223 223 216 211 213 214 221 228 232 230 231 232 235 231 229 236 230 216
89 92 92 82 25 21 17 7 330 307 306 267 268 237 247 247 251 256 262 268 263 234 222 213 223 222 223 225 216 216 216 219 220 228 231 233 226 231 229 231 219 212 213 212
Wind_Speed_850mb
36 25 24 16 18 22 15 14 17 29 22 14 3 22 18 11 5 8 10 18 15 10 8 17 19 26 38 52 60 64 67 64 69 68 66 53 47 47 42 42 39 35 35 35
32 32 30 17 18 23 25 26 23 22 24 21 10 11 5 6 12 21 22 19 20 19 14 12 19 26 33 44 52 58 65 79 64 62 66 59 61 56 49 44 42 38 40 39
26 29 24 24 17 23 26 27 24 24 16 15 5 3 9 10 21 25 30 21 13 4 7 11 20 19 28 37 42 49 58 77 71 61 61 66 67 62 57 51 44 44 39 38
21 3 15 28 13 11 15 12 15 17 19 22 23 16 21 7 16 14 10 1 10 8 5 15 17 23 26 29 34 41 49 70 77 69 68 68 64 61 51 51 52 44 40 36
22 24 15 44 16 2 20 9 6 17 23 28 7 17 25 19 8 15 16 12 10 7 2 10 12 14 24 26 27 30 38 47 51 68 70 67 63 57 57 50 45 47 44 34
8 18 24 24 30 17 9 12 13 19 13 9 10 15 9 23 17 9 11 18 14 8 7 15 13 18 19 15 9 10 17 30 38 44 50 53 58 63 56 57 54 44 34 39
23 36 18 16 25 17 12 3 10 7 10 11 11 14 25 20 18 14 17 15 17 15 13 16 8 5 7 11 13 15 19 22 25 30 42 50 53 56 55 50 41 38 37 36
22 25 25 22 9 9 13 5 7 3 7 9 9 21 16 12 15 16 22 27 22 21 24 31 33 26 25 14 7 2 16 24 32 32 35 32 18 24 30 30 28 23 22 22
26 14 19 20 13 9 9 5 3 2 8 12 12 22 13 11 14 25 24 26 23 25 25 21 23 25 17 22 21 25 26 6 24 21 20 32 37 27 29 28 26 25 22 16
21 12 12 24 25 15 7 1 1 4 1 8 21 18 12 10 14 23 28 30 20 18 22 22 8 8 11 17 19 23 35 48 50 39 46 42 28 29 34 30 26 26 27 21
27 28 26 21 28 20 17 5 10 10 19 25 24 19 16 14 11 17 27 28 20 23 22 18 7 6 7 14 16 16 21 26 34 43 46 40 35 38 32 33 32 27 25 21
22 39 26 32 28 26 17 14 16 17 18 25 32 25 19 12 7 6 20 22 20 22 20 17 11 12 6 6 11 17 25 25 25 28 36 36 32 27 28 25 23 19 19 19
41 46 50 36 32 24 21 22 21 26 26 29 30 34 31 36 30 31 20 27 20 25 6 5 14 12 10 12 15 14 10 16 22 23 22 26 28 25 29 30 25 19 20 21
23 25 73 35 30 25 26 27 25 28 26 29 29 31 25 22 23 14 16 19 13 13 10 10 14 10 7 12 21 25 26 25 22 20 22 18 17 24 22 24 29 29 26 25
14 76 85 27 31 29 30 30 31 29 27 28 28 29 27 20 17 18 16 18 18 17 10 13 13 13 16 20 19 21 27 19 21 17 23 18 15 21 19 20 25 29 30 31
70 75 58 43 37 33 34 32 32 30 27 29 23 23 22 21 20 19 20 15 17 19 15 17 20 15 18 19 20 17 14 19 12 25 27 27 21 19 28 21 16 26 27 31
25 82 36 40 41 37 35 33 31 30 26 31 27 23 20 20 21 20 21 24 13 15 24 19 16 17 22 19 21 21 17 23 20 16 20 18 21 23 20 19 21 19 17 23
31 32 35 59 41 40 38 35 32 32 29 24 31 28 26 23 23 23 24 23 23 18 22 27 28 25 23 25 26 23 17 20 22 21 22 22 23 23 21 23 24 28 21 22
13 16 25 32 30 40 37 37 34 30 29 26 29 29 27 28 26 26 24 28 27 28 26 19 27 32 26 35 22 26 21 20 22 22 20 22 24 23 24 26 26 31 20 28
9 13 15 36 36 41 37 38 36 37 31 26 25 26 29 30 29 28 30 33 30 27 28 30 33 29 29 26 32 27 26 25 24 26 24 24 26 26 26 26 28 30 29 20
10 22 11 1 22 7 39 31 36 38 32 29 31 33 33 32 34 34 33 32 33 32 31 34 39 30 39 33 44 34 25 29 29 29 30 28 29 28 29 28 25 26 27 31
13 8 11 20 22 40 49 33 24 28 29 28 30 34 37 38 37 38 39 36 31 36 40 40 41 40 35 37 33 39 28 28 30 31 32 31 31 31 31 34 31 30 27 28
21 17 12 14 11 9 13 18 19 23 33 36 38 36 39 39 41 44 48 43 45 45 42 45 42 42 48 44 37 39 38 33 36 36 38 40 33 36 37 31 36 38 31 30
11 9 27 20 18 15 14 22 22 24 30 30 34 37 38 37 40 47 53 51 42 49 55 47 51 48 36 59 49 42 43 42 34 39 38 41 44 39 38 37 37 30 28 30
19 15 14 19 26 32 26 18 22 22 31 35 36 37 31 35 43 45 44 55 54 49 57 54 53 52 48 42 56 53 51 50 46 39 40 42 38 39 38 38 34 27 36 31
23 17 16 16 11 14 32 28 20 24 27 28 16 13 38 38 44 44 43 43 34 55 63 64 62 60 56 50 49 57 57 54 52 51 48 38 43 41 37 38 36 42 38 35
20 18 14 12 11 15 15 9 9 15 17 14 14 33 33 34 32 36 38 41 46 38 64 52 58 65 67 64 55 54 55 55 58 53 53 58 48 44 47 41 46 40 32 34
Wind_Direction_850mb
286 205 202 244 293 295 278 291 303 304 323 203 26 109 79 41 331 288 251 252 246 258 256 222 234 228 220 224 220 219 212 212 217 221 223 218 211 219 221 227 236 234 226 232
279 292 297 231 232 254 269 280 271 261 288 301 295 131 151 240 259 278 264 247 243 236 223 261 240 218 232 231 235 233 226 220 219 224 216 216 214 217 224 223 225 228 227 226
252 271 306 290 243 244 258 254 264 277 302 343 326 126 298 281 296 260 254 233 226 161 242 266 260 259 240 239 243 236 228 222 219 222 223 225 216 215 220 226 232 233 230 230
254 275 286 280 270 201 247 278 299 311 310 300 295 318 305 283 263 294 291 63 142 120 233 253 252 251 245 240 242 244 237 232 231 227 226 229 220 219 222 228 231 231 231 229
242 247 271 242 315 133 259 211 347 308 293 294 343 321 272 262 221 103 84 93 108 120 279 275 251 259 244 243 244 247 243 238 237 229 226 223 226 220 217 231 235 230 226 232
272 249 251 249 179 246 65 258 71 30 3 345 344 286 79 109 130 140 130 124 108 108 178 246 247 251 228 222 204 221 229 229 229 219 217 221 225 224 228 224 224 226 231 234
204 236 245 274 117 120 226 88 86 39 343 311 304 61 108 117 114 132 142 148 126 113 87 65 125 256 209 219 245 240 220 215 220 222 225 212 205 194 198 207 219 225 229 234
246 253 234 84 54 216 95 164 280 122 300 300 130 127 120 134 151 155 157 152 144 122 108 99 90 83 79 81 82 234 247 239 233 231 230 241 238 175 181 188 198 206 219 229
304 237 115 117 130 79 57 330 274 354 291 266 241 130 145 170 185 167 170 157 164 139 130 117 94 70 90 99 78 77 65 98 211 211 228 218 217 203 189 192 192 189 192 202
331 157 161 202 135 120 137 29 72 113 127 128 119 122 133 159 181 179 173 162 132 150 152 158 128 56 65 147 112 79 77 91 96 97 92 99 107 129 139 137 141 149 144 136
279 261 133 146 143 157 135 148 129 108 120 121 117 116 129 130 147 183 177 161 161 138 148 148 126 356 45 112 168 171 99 112 111 104 96 94 97 105 107 105 108 112 113 119
238 333 162 162 154 147 145 157 135 131 118 127 123 125 125 123 133 208 132 138 137 134 116 106 130 128 128 119 109 126 159 136 119 123 125 122 117 124 129 131 127 120 112 117
260 313 315 151 149 152 157 151 146 142 143 136 130 137 133 123 108 102 129 132 157 148 29 90 167 176 151 135 131 121 123 130 131 134 139 140 145 143 135 127 128 128 128 131
255 254 282 144 146 157 149 142 144 139 148 145 150 157 154 152 134 153 168 174 177 213 165 179 154 176 161 154 145 131 127 114 115 118 117 105 130 130 130 137 138 137 137 140
104 230 243 152 154 152 149 143 154 150 151 141 151 164 173 175 171 175 182 191 179 193 216 198 191 177 181 162 153 152 151 141 141 148 156 141 135 138 137 150 155 150 147 142
224 226 181 160 157 157 156 160 160 159 162 147 153 163 174 181 175 177 180 185 189 191 187 196 193 179 178 157 148 137 141 169 148 162 172 160 163 167 154 161 154 151 144 145
86 266 140 156 168 167 169 169 170 167 173 160 161 168 168 169 173 179 186 197 210 187 199 197 186 180 165 158 164 172 171 173 165 160 150 161 159 168 180 167 163 151 177 155
248 170 158 179 182 170 173 172 179 175 178 179 169 170 178 183 185 189 192 195 195 188 201 205 189 177 177 183 181 161 177 178 175 176 177 173 173 173 176 176 167 165 179 169
280 258 185 174 191 177 175 174 178 175 170 184 178 180 189 195 195 196 195 202 201 203 209 215 198 202 192 181 192 192 187 187 186 185 182 183 175 177 182 179 176 171 169 173
9 201 217 195 179 188 217 176 175 168 172 184 194 195 196 199 200 201 203 205 210 211 213 202 213 216 187 208 204 191 200 196 196 191 189 189 189 194 193 192 187 188 192 185
187 160 159 281 173 186 223 210 180 169 175 189 201 208 207 209 210 209 211 212 217 206 212 213 209 210 192 205 207 207 207 204 204 202 196 198 203 205 203 200 207 203 201 206
198 165 169 167 190 192 203 176 178 180 186 196 208 213 212 215 216 222 221 220 221 214 204 216 216 205 203 206 209 210 220 215 212 211 207 204 214 211 217 210 207 217 218 214
222 201 194 193 192 174 199 184 196 196 202 207 209 212 216 217 218 217 222 238 223 224 213 205 216 211 197 205 211 213 218 227 219 219 216 210 212 226 220 230 227 217 212 219
170 178 192 176 186 205 232 199 209 216 215 218 220 217 215 222 232 236 234 229 234 218 218 209 211 222 214 206 201 215 217 225 236 226 226 222 216 215 223 229 231 228 226 217
100 109 155 197 215 219 232 203 213 222 214 222 224 229 233 240 240 241 250 235 219 221 219 215 216 221 221 219 209 208 215 220 224 233 229 231 228 227 228 226 228 235 227 230
94 100 93 90 142 156 204 182 195 223 230 257 246 217 283 260 259 254 255 268 255 231 227 216 216 219 223 223 216 211 213 214 221 228 232 230 231 232 235 231 229 236 230 216
89 92 92 82 25 21 17 7 330 307 306 267 268 237 247 247 251 256 262 268 263 234 222 213 223 222 223 225 216 216 216 219 220 228 231 233 226 231 229 231 219 212 213 212